Regional Weather Roundup
Issued by NWS

Home | Current Version | Previous Version | Graphics & Text | Print | Product List | Glossary On
Versions: 1 2 3 4 5 6 7 8 9 10 11 12 13 14 15 16 17 18 19 20 21 22 23 24 25 26 27 28 29 30 31 32 33 34 35 36 37 38 39 40 41 42 43 44 45 46 47 48 49 50
000
ASUS43 KMKX 070711
RWRWI

WISCONSIN REGIONAL WEATHER ROUNDUP
NATIONAL WEATHER SERVICE MILWAUKEE/SULLIVAN WI
100 AM CST SUN FEB 07 2016

NOTE: "FAIR" INDICATES FEW OR NO CLOUDS BELOW 12,000 FEET WITH NO
SIGNIFICANT WEATHER AND/OR OBSTRUCTIONS TO VISIBILITY.

WIZ001-002-006>008-014>016-023>028-070800-
NORTHWEST WISCONSIN

CITY           SKY/WX    TMP DP  RH WIND       PRES   REMARKS
SUPERIOR ARPT  CLOUDY    34  31  88 SW12      29.61F WCI  25
ASHLAND        CLOUDY    32  28  85 S10G18    29.65F WCI  24
HAYWARD        CLOUDY    30  26  85 S16       29.67F WCI  19
SIREN          CLOUDY    33  28  83 SW7       29.68R WCI  27
CUMBERLAND     CLOUDY    30  28  93 S10       29.67F WCI  21
RICE LAKE      CLOUDY    31  27  86 S10       29.71F WCI  22
CHETEK         CLOUDY    31  28  87 S7        29.71F WCI  24
LADYSMITH      CLOUDY    30  28  92 S8        29.72F WCI  22
EAU CLAIRE     CLOUDY    32  26  78 S12       29.72F WCI  23
MENOMONIE      CLOUDY    33  29  85 S10       29.71F WCI  25
NEW RICHMOND   CLOUDY    31  27  83 S7        29.69F WCI  25
OSCEOLA        PTCLDY    32  29  87 S6        29.71F WCI  27
$$

WIZ003>005-009-010-017-018-070800-
NORTH CENTRAL WISCONSIN

CITY           SKY/WX    TMP DP  RH WIND       PRES   REMARKS
MANITOWISH WTR LGT SNOW  28  27  96 S10G17    29.68F WCI  18
ARBOR VITAE    LGT SNOW  29  27  90 S15       29.70F WCI  18
WOODRUFF       LGT SNOW  29  27  90 S15       29.70F WCI  18
RHINELANDER    LGT SNOW  28  24  85 S14       29.73F FOG     WCI  17
EAGLE RIVER    LGT SNOW  28  25  87 SW9       29.71F WCI  19
LAND O LAKES   LGT SNOW  28  26  91 S9G18     29.69F WCI  20
PHILLIPS       LGT SNOW  28  26  95 S10       29.70F WCI  18
TOMAHAWK       LGT SNOW  28  25  91 S5        29.75F WCI  22
MEDFORD        LGT SNOW  28  27  96 S13       29.74F WCI  17
MERRILL        LGT SNOW  29  26  87 S7        29.78F WCI  22
$$

WIZ029-030-035-036-043>047-070800-
CENTRAL WISCONSIN

CITY           SKY/WX    TMP DP  RH WIND       PRES   REMARKS
WAUSAU         CLOUDY    31  24  75 S13       29.78F WCI  21
MOSINEE        CLOUDY    30  28  93 S13       29.80F WCI  20
MARSHFIELD     LGT SNOW  30  24  78 S12       29.78F WCI  20
STEVENS POINT  CLOUDY    28  25  87 S9        29.83F WCI  19
WAUPACA        CLOUDY    32  27  82 S8        29.86F WCI  25
WAUTOMA        CLOUDY    30  28  92 S6        29.87F WCI  24
WISC RAPIDS    CLOUDY    31  25  78 S9        29.83F WCI  23
CAMP DOUGLAS   CLOUDY    32  32 100 S6        29.82F WCI  27
$$

WIZ011>013-019>022-031-037>040-048>050-070800-
NORTHEAST WISCONSIN

CITY           SKY/WX    TMP DP  RH WIND       PRES   REMARKS
ANTIGO         CLOUDY    27  25  91 S12       29.79F WCI  17
SHAWANO        CLOUDY    31  26  80 S5        29.86F WCI  27
OCONTO         CLOUDY    29  26  86 S6        29.87F WCI  23
STURGEON BAY   CLOUDY    28  21  74 S13       29.90F WCI  18
GREEN BAY      CLOUDY    30  26  85 S9        29.88F WCI  22
MANITOWOC      CLOUDY    32  27  81 S7        29.93F WCI  26
APPLETON       CLOUDY    30  27  86 S12       29.85F WCI  21
CLINTONVILLE   CLOUDY    30  27  86 S9        29.86F WCI  22
OSHKOSH        CLOUDY    32  26  78 S14       29.89F WCI  22
$$

WIZ032>034-041-042-053>061-070800-
SOUTHWEST WISCONSIN

CITY           SKY/WX    TMP DP  RH WIND       PRES   REMARKS
LA CROSSE      CLOUDY    33  28  81 S13       29.81F WCI  24
SPARTA         CLOUDY    33  29  85 SW6       29.83F WCI  28
VIROQUA        CLOUDY    33  30  90 SW15      29.83F WCI  23
BOSCOBEL       CLOUDY    36  32  85 SW7       29.88F WCI  30
PRAIRIE DU CHI CLOUDY    37  29  72 S5        29.88F WCI  33
PLATTEVILLE    CLOUDY    35  32  88 S14       29.90F WCI  25
$$

WIZ056-057-062-063-064-067-068-070800-
SOUTH CENTRAL WISCONSIN

CITY           SKY/WX    TMP DP  RH WIND       PRES   REMARKS
REEDSBURG      CLOUDY    33  30  87 S14       29.86F WCI  24
BARABOO/DELLS  CLOUDY    32  28  84 S12       29.86F WCI  23
LONE ROCK      CLOUDY    37  29  72 S12G18    29.89F WCI  29
MINERAL POINT  PTCLDY    36  32  87 S14       29.89F WCI  27
MADISON        CLOUDY    33  28  81 S9        29.92F WCI  25
MIDDLETON      CLOUDY    36  31  82 SW9       29.91F WCI  29
WATERTOWN      CLOUDY    32  32 100 S8        29.94F WCI  25
MONROE         CLOUDY    32  32 100 S14       29.93F WCI  22
JANESVILLE     MOCLDY    34  32  93 S6        29.95F WCI  29
$$

WIZ051-052-058>065-066-070>072-070800-
SOUTHEAST WISCONSIN

CITY           SKY/WX    TMP DP  RH WIND       PRES   REMARKS
MILWAUKEE      CLOUDY    33  28  81 SW7       29.98F WCI  27
WAUKESHA       CLOUDY    32  28  86 S5        29.97F WCI  27
MILWAUKEE/TIMM CLOUDY    32  28  86 S6        29.97F WCI  26
RACINE         CLOUDY    34  27  75 S10       30.00F WCI  26
BURLINGTON     CLOUDY    31  28  86 S7        29.98F WCI  24
KENOSHA        CLOUDY    33  28  81 SW7       29.99F WCI  27
FOND DU LAC    CLOUDY    33  28  81 S15       29.90F WCI  23
SHEBOYGAN      CLOUDY    32  27  81 S9        29.93F WCI  24
WEST BEND      CLOUDY    32  30  93 S9        29.94F WCI  24
JUNEAU         CLOUDY    31  28  90 S12       29.93F WCI  21
$$

LSZ147-162-070800-
LAKE SUPERIOR

STATION/POSITION TIME  TEMP    WIND        PRES    WAVE
                       AIR SEA DIR/SP/G            HT/PER
                 (UTC) (F)     (DEG/KT/KT) (MB)    (FT/S)
DEVILS ISLAND    0700   31     190/  8/ 11 1003.9F
SAXON HARBOR     0600   33                 1004.4F
$$

LMZ867-665-643>646-070800-
LAKE MICHIGAN

STATION/POSITION TIME  TEMP    WIND        PRES    WAVE
                       AIR SEA DIR/SP/G            HT/PER
                 (UTC) (F)     (DEG/KT/KT) (MB)    (FT/S)
CHAMBERS ISLAND  0600   29     160/  5/ 10 1012.9F
ALGOMA LAKESHORE 0611          240/ 14/ 18   N/A
KEWAUNEE LAKESHO 0600   30     210/  9/ 13 1013.3F
SHEBOYGAN LAKESH 0700   32     190/  9/ 10 1014.8F
PORT WASHINGTON  0640   33     190/  6/  8 1015.6F
MILWAUKEE LAKESH 0610   34     210/ 10/ 11   N/A
KENOSHA   LAKESH 0700   35     200/  6/  8 1015.9F
$$

TC  - TEMPERATURE IN CELSIUS
VSB - VISIBILITY IN STATUTE MILES
WCI - WIND CHILL INDEX
HX  - HEAT INDEX




USA.gov is the U.S. government's official web portal to all federal, state and local government web resources and services.